DLH107 EDDM-EDDF

Flight info

Callsign DLH107
Flight time 0h 33m
Altitude 24000
Route GIVMI6S GIVMI Y101 ERNAS T161 DEBHI DEBHI1B
Aircraft B789/H-SADFGHIJ1J2J3J4J5LOP1P2RWXYZ/LB1D1

Departure

Time 2026-05-05 19:14
Airport Munich Airport (EDDM)

Arrival

Time 2026-05-05 19:47
Airport Frankfurt Main Airport (EDDF)
Time Latitude Longitude Altitude Speed Heading
2026-05-05 18:35 48.35467 11.79715 1477 ft 0 kts 83°
2026-05-05 18:59 48.35466 11.79698 1491 ft 4 kts 83°
2026-05-05 19:00 48.35463 11.79659 1491 ft 3 kts 83°
2026-05-05 19:00 48.35459 11.79627 1487 ft 4 kts 68°
2026-05-05 19:00 48.35447 11.79601 1475 ft 4 kts 28°
2026-05-05 19:00 48.35427 11.79595 1475 ft 3 kts 353°
2026-05-05 19:01 48.35401 11.79599 1475 ft 4 kts 353°
2026-05-05 19:01 48.35396 11.79600 1475 ft 0 kts 353°
2026-05-05 19:03 48.35404 11.79599 1475 ft 3 kts 353°
2026-05-05 19:03 48.35435 11.79593 1475 ft 6 kts 353°
2026-05-05 19:03 48.35489 11.79584 1482 ft 9 kts 353°
2026-05-05 19:04 48.35564 11.79571 1491 ft 12 kts 353°
2026-05-05 19:04 48.35659 11.79554 1483 ft 15 kts 353°
2026-05-05 19:04 48.35765 11.79536 1486 ft 14 kts 353°
2026-05-05 19:04 48.35850 11.79521 1477 ft 11 kts 353°
2026-05-05 19:05 48.35906 11.79511 1477 ft 7 kts 353°
2026-05-05 19:05 48.35958 11.79502 1478 ft 8 kts 353°
2026-05-05 19:05 48.36013 11.79493 1478 ft 6 kts 353°
2026-05-05 19:05 48.36056 11.79485 1485 ft 7 kts 353°
2026-05-05 19:06 48.36116 11.79475 1484 ft 10 kts 353°
2026-05-05 19:06 48.36186 11.79472 1477 ft 10 kts 17°
2026-05-05 19:06 48.36219 11.79541 1480 ft 8 kts 76°
2026-05-05 19:06 48.36226 11.79637 1485 ft 11 kts 83°
2026-05-05 19:07 48.36236 11.79764 1475 ft 14 kts 83°
2026-05-05 19:07 48.36244 11.79866 1488 ft 16 kts 83°
2026-05-05 19:07 48.36264 11.80127 1486 ft 21 kts 83°
2026-05-05 19:07 48.36282 11.80352 1478 ft 22 kts 83°
2026-05-05 19:08 48.36300 11.80587 1491 ft 23 kts 83°
2026-05-05 19:08 48.36317 11.80809 1487 ft 19 kts 83°
2026-05-05 19:08 48.36333 11.81016 1491 ft 20 kts 83°
2026-05-05 19:08 48.36349 11.81230 1480 ft 21 kts 83°
2026-05-05 19:09 48.36366 11.81456 1475 ft 22 kts 83°
2026-05-05 19:09 48.36384 11.81684 1484 ft 17 kts 83°
2026-05-05 19:09 48.36396 11.81834 1486 ft 12 kts 83°
2026-05-05 19:09 48.36392 11.81942 1479 ft 10 kts 102°
2026-05-05 19:10 48.36395 11.82055 1480 ft 12 kts 83°
2026-05-05 19:10 48.36439 11.82134 1478 ft 9 kts 10°
2026-05-05 19:10 48.36503 11.82130 1483 ft 9 kts 353°
2026-05-05 19:10 48.36538 11.82123 1479 ft 1 kts 353°
2026-05-05 19:11 48.36552 11.82120 1481 ft 0 kts 351°
2026-05-05 19:11 48.36553 11.82120 1481 ft 0 kts 351°
2026-05-05 19:11 48.36557 11.82119 1483 ft 3 kts 351°
2026-05-05 19:11 48.36590 11.82106 1484 ft 7 kts 345°
2026-05-05 19:12 48.36649 11.82084 1484 ft 10 kts 343°
2026-05-05 19:12 48.36680 11.82022 1480 ft 6 kts 274°
2026-05-05 19:12 48.36679 11.81983 1481 ft 1 kts 263°
2026-05-05 19:12 48.36678 11.81977 1481 ft 1 kts 263°
2026-05-05 19:13 48.36677 11.81959 1482 ft 3 kts 263°
2026-05-05 19:13 48.36660 11.81753 1483 ft 47 kts 263°
2026-05-05 19:13 48.36625 11.81285 1479 ft 89 kts 263°
2026-05-05 19:13 48.36489 11.79512 1492 ft 163 kts 264°
2026-05-05 19:14 48.36389 11.78272 1643 ft 182 kts 256°
2026-05-05 19:14 48.36155 11.76505 2596 ft 175 kts 257°
2026-05-05 19:14 48.36003 11.74697 3548 ft 169 kts 266°
2026-05-05 19:14 48.35932 11.72793 4108 ft 194 kts 269°
2026-05-05 19:15 48.35853 11.70637 4574 ft 222 kts 265°
2026-05-05 19:15 48.35817 11.68317 5654 ft 222 kts 282°
2026-05-05 19:15 48.36429 11.66123 6309 ft 245 kts 297°
2026-05-05 19:15 48.37367 11.63806 6772 ft 271 kts 300°
2026-05-05 19:16 48.38392 11.61394 6832 ft 272 kts 300°
2026-05-05 19:16 48.39380 11.59001 6830 ft 269 kts 299°
2026-05-05 19:16 48.40347 11.56601 6829 ft 268 kts 298°
2026-05-05 19:16 48.41317 11.54199 6828 ft 268 kts 299°
2026-05-05 19:17 48.42287 11.51814 6827 ft 267 kts 299°
2026-05-05 19:17 48.43278 11.49451 6822 ft 266 kts 305°
2026-05-05 19:17 48.44842 11.47871 7403 ft 274 kts 337°
2026-05-05 19:17 48.46657 11.46946 8490 ft 281 kts 339°
2026-05-05 19:18 48.48561 11.46105 9453 ft 288 kts 340°
2026-05-05 19:18 48.50506 11.45276 10220 ft 300 kts 340°
2026-05-05 19:18 48.52604 11.44339 10537 ft 327 kts 339°
2026-05-05 19:18 48.54868 11.43309 10873 ft 351 kts 340°
2026-05-05 19:19 48.57208 11.42268 11816 ft 353 kts 340°
2026-05-05 19:19 48.59595 11.41208 12664 ft 359 kts 340°
2026-05-05 19:19 48.61998 11.40128 13499 ft 364 kts 340°
2026-05-05 19:19 48.64447 11.39025 14259 ft 369 kts 340°
2026-05-05 19:20 48.66922 11.37913 15010 ft 373 kts 340°
2026-05-05 19:20 48.69418 11.36764 15749 ft 376 kts 337°
2026-05-05 19:20 48.71693 11.34874 16432 ft 375 kts 323°
2026-05-05 19:20 48.73886 11.32668 17111 ft 380 kts 323°
2026-05-05 19:21 48.76096 11.30437 17783 ft 385 kts 323°
2026-05-05 19:21 48.78336 11.28160 18384 ft 390 kts 323°
2026-05-05 19:21 48.80602 11.25859 18998 ft 394 kts 323°
2026-05-05 19:21 48.82886 11.23543 19601 ft 397 kts 323°
2026-05-05 19:22 48.85123 11.21058 20116 ft 399 kts 315°
2026-05-05 19:22 48.87213 11.18157 20172 ft 414 kts 314°
2026-05-05 19:22 48.89330 11.15171 20793 ft 416 kts 314°
2026-05-05 19:22 48.91499 11.12142 21284 ft 420 kts 315°
2026-05-05 19:23 48.93638 11.09178 21783 ft 423 kts 315°
2026-05-05 19:23 48.95847 11.06103 22278 ft 427 kts 315°
2026-05-05 19:23 48.98040 11.03028 22763 ft 430 kts 315°
2026-05-05 19:23 49.00240 10.99936 23216 ft 433 kts 315°
2026-05-05 19:24 49.02469 10.96808 23583 ft 437 kts 315°
2026-05-05 19:24 49.04692 10.93638 23858 ft 441 kts 311°
2026-05-05 19:24 49.06691 10.90074 23864 ft 442 kts 305°
2026-05-05 19:24 49.08496 10.86315 23860 ft 438 kts 303°
2026-05-05 19:25 49.10252 10.82600 23858 ft 438 kts 305°
2026-05-05 19:25 49.12172 10.78997 23869 ft 439 kts 308°
2026-05-05 19:25 49.14155 10.75442 23869 ft 439 kts 307°
2026-05-05 19:25 49.16075 10.71807 23869 ft 439 kts 306°
2026-05-05 19:26 49.17953 10.68128 23869 ft 439 kts 306°
2026-05-05 19:26 49.19851 10.64488 23885 ft 439 kts 307°
2026-05-05 19:26 49.21777 10.60862 23887 ft 439 kts 307°
2026-05-05 19:26 49.23700 10.57206 23861 ft 440 kts 306°
2026-05-05 19:27 49.25602 10.53544 23856 ft 440 kts 306°
2026-05-05 19:27 49.27503 10.49887 23857 ft 440 kts 306°
2026-05-05 19:27 49.29425 10.46209 23858 ft 442 kts 307°
2026-05-05 19:27 49.31342 10.42536 23859 ft 442 kts 306°
2026-05-05 19:28 49.33255 10.38853 23842 ft 441 kts 306°
2026-05-05 19:28 49.35161 10.35173 23809 ft 439 kts 306°
2026-05-05 19:28 49.37061 10.31508 23391 ft 439 kts 306°
2026-05-05 19:28 49.38955 10.27851 23091 ft 435 kts 306°
2026-05-05 19:29 49.40826 10.24231 22727 ft 432 kts 306°
2026-05-05 19:29 49.42686 10.20627 22366 ft 429 kts 306°
2026-05-05 19:29 49.44537 10.17035 22034 ft 427 kts 306°
2026-05-05 19:29 49.46372 10.13471 21706 ft 425 kts 306°
2026-05-05 19:30 49.48192 10.09931 21386 ft 422 kts 306°
2026-05-05 19:30 49.50008 10.06394 21072 ft 420 kts 306°
2026-05-05 19:30 49.51815 10.02868 20785 ft 417 kts 306°
2026-05-05 19:30 49.53585 9.99413 20321 ft 406 kts 306°
2026-05-05 19:31 49.55326 9.96007 19824 ft 405 kts 306°
2026-05-05 19:31 49.57068 9.92592 19323 ft 406 kts 306°
2026-05-05 19:31 49.58812 9.89175 18817 ft 400 kts 306°
2026-05-05 19:31 49.60511 9.85844 18327 ft 394 kts 306°
2026-05-05 19:32 49.62202 9.82517 17797 ft 393 kts 306°
2026-05-05 19:32 49.63878 9.79215 17320 ft 391 kts 306°
2026-05-05 19:32 49.65550 9.75921 16825 ft 387 kts 306°
2026-05-05 19:32 49.67193 9.72683 16343 ft 378 kts 305°
2026-05-05 19:33 49.68808 9.69492 15892 ft 377 kts 305°
2026-05-05 19:33 49.70419 9.66301 15438 ft 377 kts 305°
2026-05-05 19:33 49.72028 9.63117 14944 ft 369 kts 305°
2026-05-05 19:33 49.73591 9.60022 14501 ft 365 kts 305°
2026-05-05 19:34 49.75154 9.56915 14057 ft 366 kts 305°
2026-05-05 19:34 49.76708 9.53825 13591 ft 363 kts 305°
2026-05-05 19:34 49.78234 9.50792 13130 ft 356 kts 305°
2026-05-05 19:35 49.81300 9.44680 12248 ft 357 kts 305°
2026-05-05 19:35 49.82802 9.41685 11790 ft 348 kts 305°
2026-05-05 19:35 49.84283 9.38723 11377 ft 350 kts 305°
2026-05-05 19:35 49.85779 9.35731 11005 ft 349 kts 305°
2026-05-05 19:36 49.87262 9.32810 11017 ft 347 kts 306°
2026-05-05 19:36 49.88771 9.29850 11018 ft 351 kts 306°
2026-05-05 19:36 49.90294 9.26865 10684 ft 352 kts 306°
2026-05-05 19:36 49.91771 9.23982 10257 ft 323 kts 306°
2026-05-05 19:37 49.93120 9.21377 9849 ft 304 kts 306°
2026-05-05 19:37 49.94430 9.18856 9415 ft 296 kts 306°
2026-05-05 19:37 49.95771 9.16496 8957 ft 291 kts 318°
2026-05-05 19:37 49.97579 9.15101 8529 ft 292 kts 338°
2026-05-05 19:38 49.99530 9.14221 8113 ft 291 kts 342°
2026-05-05 19:38 50.01506 9.13457 7383 ft 295 kts 343°
2026-05-05 19:38 50.03451 9.12723 6516 ft 283 kts 343°
2026-05-05 19:38 50.05353 9.12004 5653 ft 280 kts 343°
2026-05-05 19:39 50.07227 9.11291 5055 ft 276 kts 343°
2026-05-05 19:39 50.09026 9.10606 5004 ft 255 kts 343°
2026-05-05 19:39 50.10527 9.09481 4996 ft 238 kts 310°
2026-05-05 19:39 50.11243 9.07218 5011 ft 230 kts 280°
2026-05-05 19:40 50.11486 9.04765 5005 ft 229 kts 275°
2026-05-05 19:40 50.11652 9.02338 5009 ft 227 kts 274°
2026-05-05 19:40 50.11808 8.99860 5003 ft 228 kts 274°
2026-05-05 19:40 50.11959 8.97433 5002 ft 228 kts 274°
2026-05-05 19:41 50.12111 8.94981 5007 ft 227 kts 274°
2026-05-05 19:41 50.12261 8.92535 5004 ft 227 kts 274°
2026-05-05 19:41 50.12410 8.90079 5005 ft 227 kts 274°
2026-05-05 19:41 50.12414 8.87696 5001 ft 212 kts 264°
2026-05-05 19:42 50.12190 8.85443 4905 ft 210 kts 252°
2026-05-05 19:42 50.11717 8.83308 4641 ft 207 kts 250°
2026-05-05 19:42 50.11228 8.81214 4346 ft 205 kts 249°
2026-05-05 19:42 50.10741 8.79168 4080 ft 199 kts 249°
2026-05-05 19:43 50.10266 8.77177 3807 ft 193 kts 249°
2026-05-05 19:43 50.09801 8.75229 3511 ft 189 kts 249°
2026-05-05 19:43 50.09350 8.73342 3244 ft 181 kts 249°
2026-05-05 19:43 50.08916 8.71519 2976 ft 179 kts 249°
2026-05-05 19:44 50.08487 8.69720 2724 ft 175 kts 249°
2026-05-05 19:44 50.08062 8.67941 2480 ft 176 kts 249°
2026-05-05 19:44 50.07652 8.66223 2224 ft 158 kts 249°
2026-05-05 19:44 50.07290 8.64708 2009 ft 144 kts 249°
2026-05-05 19:45 50.06946 8.63262 1801 ft 142 kts 249°
2026-05-05 19:45 50.06604 8.61834 1603 ft 141 kts 249°
2026-05-05 19:45 50.06260 8.60388 1405 ft 141 kts 249°
2026-05-05 19:45 50.05919 8.58968 1202 ft 143 kts 249°
2026-05-05 19:46 50.05566 8.57486 991 ft 145 kts 249°
2026-05-05 19:46 50.05218 8.56023 773 ft 145 kts 248°
2026-05-05 19:46 50.04869 8.54563 586 ft 144 kts 248°
2026-05-05 19:46 50.04516 8.53090 384 ft 140 kts 248°
2026-05-05 19:47 50.04247 8.51971 353 ft 102 kts 250°
2026-05-05 19:47 50.04068 8.51219 333 ft 43 kts 250°
2026-05-05 19:47 50.03976 8.50834 328 ft 37 kts 249°
2026-05-05 19:47 50.03878 8.50472 323 ft 31 kts 239°
2026-05-05 19:48 50.03759 8.50275 320 ft 14 kts 220°
2026-05-05 19:48 50.03692 8.50192 321 ft 8 kts 210°
2026-05-05 19:48 50.03659 8.50183 325 ft 2 kts 172°
2026-05-05 19:48 50.03656 8.50185 325 ft 0 kts 166°
2026-05-05 19:49 50.03641 8.50195 326 ft 7 kts 148°
2026-05-05 19:49 50.03643 8.50356 327 ft 15 kts 68°
2026-05-05 19:49 50.03680 8.50500 329 ft 14 kts 69°
2026-05-05 19:50 50.03713 8.50640 332 ft 14 kts 70°
2026-05-05 19:50 50.03746 8.50777 335 ft 14 kts 69°
2026-05-05 19:50 50.03780 8.50920 335 ft 15 kts 70°
2026-05-05 19:50 50.03819 8.51082 337 ft 18 kts 70°
2026-05-05 19:51 50.03865 8.51276 338 ft 20 kts 69°
2026-05-05 19:51 50.03918 8.51495 349 ft 23 kts 69°
2026-05-05 19:51 50.03976 8.51739 347 ft 25 kts 70°
2026-05-05 19:51 50.04035 8.51987 353 ft 24 kts 69°
2026-05-05 19:52 50.04092 8.52225 353 ft 23 kts 70°
2026-05-05 19:52 50.04147 8.52452 355 ft 22 kts 69°
2026-05-05 19:52 50.04199 8.52668 362 ft 21 kts 70°
2026-05-05 19:52 50.04249 8.52877 364 ft 20 kts 69°
2026-05-05 19:53 50.04299 8.53087 367 ft 21 kts 70°
2026-05-05 19:53 50.04345 8.53280 373 ft 17 kts 70°
2026-05-05 19:53 50.04383 8.53438 378 ft 14 kts 70°
2026-05-05 19:53 50.04399 8.53574 381 ft 13 kts 84°
2026-05-05 19:54 50.04410 8.53733 381 ft 16 kts 84°
2026-05-05 19:54 50.04422 8.53920 381 ft 19 kts 84°
2026-05-05 19:54 50.04436 8.54132 381 ft 21 kts 84°
2026-05-05 19:54 50.04446 8.54285 380 ft 22 kts 84°
2026-05-05 19:55 50.04425 8.54600 373 ft 20 kts 117°
2026-05-05 19:55 50.04376 8.54703 370 ft 19 kts 135°
2026-05-05 19:55 50.04272 8.54796 364 ft 17 kts 160°
2026-05-05 19:55 50.04176 8.54848 364 ft 16 kts 159°
2026-05-05 19:56 50.04088 8.54899 358 ft 0 kts 160°
2026-05-05 19:56 50.04087 8.54900 358 ft 0 kts 160°
2026-05-05 19:57 50.04081 8.54903 353 ft 2 kts 160°
2026-05-05 19:57 50.04056 8.54918 338 ft 5 kts 160°
2026-05-05 19:57 50.04017 8.54940 362 ft 7 kts 159°
2026-05-05 19:58 50.03957 8.54977 364 ft 13 kts 159°
2026-05-05 19:58 50.03875 8.55025 359 ft 10 kts 156°
2026-05-05 19:58 50.03848 8.55100 357 ft 7 kts 84°
2026-05-05 19:58 50.03866 8.55188 363 ft 10 kts 69°
2026-05-05 19:59 50.03895 8.55306 363 ft 13 kts 69°
2026-05-05 19:59 50.03931 8.55458 361 ft 17 kts 70°
2026-05-05 19:59 50.03978 8.55654 359 ft 22 kts 69°
2026-05-05 19:59 50.04026 8.55856 365 ft 14 kts 70°
2026-05-05 20:00 50.04060 8.55958 362 ft 9 kts 37°
2026-05-05 20:00 50.04112 8.55960 366 ft 8 kts 343°
2026-05-05 20:00 50.04171 8.55927 362 ft 10 kts 341°
2026-05-05 20:00 50.04237 8.55942 363 ft 10 kts 27°
2026-05-05 20:01 50.04302 8.55951 366 ft 10 kts 347°
2026-05-05 20:01 50.04372 8.55916 367 ft 11 kts 346°
2026-05-05 20:01 50.04447 8.55920 366 ft 11 kts 14°
2026-05-05 20:01 50.04524 8.55956 364 ft 9 kts 19°
2026-05-05 20:02 50.04567 8.56025 365 ft 9 kts 60°
2026-05-05 20:02 50.04605 8.56076 370 ft 3 kts
2026-05-05 20:02 50.04638 8.56065 363 ft 6 kts 341°
2026-05-05 20:02 50.04668 8.56048 368 ft 0 kts 339°